Schaffen, Belgium

12:17 AM CEST on October 19, 2017 (GMT +0200)
Schaffen

Weather History for EBDT - May, 2013

Change the Weather History Date:

Tuesday, May 7, 2013

  Actual Average Record
Temperature  
Mean Temperature 61 °F -  
Max Temperature 74 °F 61 °F 82 °F (2011)
Min Temperature 48 °F 52 °F 39 °F (2012)
Degree Days  
Heating Degree Days 4    
Growing Degree Days 11 (Base 50)    
Moisture  
Dew Point 51 °F    
Average Humidity 79    
Maximum Humidity 100    
Minimum Humidity 26    
Precipitation  
Precipitation 0.16 in - - ()
Sea Level Pressure  
Sea Level Pressure 29.97 in    
Wind  
Wind Speed 5 mph ()    
Max Wind Speed 10 mph    
Max Gust Speed -    
Visibility 3.8 miles    
Events Rain , Thunderstorm    
Averages and records for this station are not official NWS values.
T = Trace of Precipitation, MM = Missing Value Source: Averaged Metar Reports

Daily Weather History Graph

Daily Weather History Graph

Search for Another Location

Airport or City:

Trip Planner

Search our weather history database for the weather conditions in past years. The results will help you decide how hot, cold, wet, or windy it might be!

Date:

Astronomy

May. 07, 2013 Rise Set
Actual Time 6:02 AM CEST 9:11 PM CEST
Civil Twilight 5:23 AM CEST 9:50 PM CEST
Nautical Twilight 4:32 AM CEST 10:41 PM CEST
Astronomical Twilight 3:26 AM CEST 11:48 PM CEST
Moon 4:45 AM CEST (5/7) 6:42 PM CEST (5/7)
Length of Visible Light 16h 26m
Length of Day
15h 08m
Waning Crescent, 7% of the Moon is Illuminated
May 7
Waning Crescent
May 10
New
May 18
First Quarter
May 25
Full
May 31
Last Quarter

Hourly Weather History & Observations

Time (CEST) Temp. Dew Point Humidity Pressure Visibility Wind Dir Wind Speed Gust Speed Precip Events Conditions
12:25 AM 53.6 °F 44.6 °F 72% 30.04 in 6.2 mi NW 9.2 mph - N/A   Clear
1:25 AM 53.6 °F 44.6 °F 72% 30.04 in 5.6 mi NW 10.4 mph - N/A   Clear
2:00 AM 52 °F 45 °F 69% 30.04 in 5 mi NW 8.9 mph - -   Clear
2:09 AM 51.8 °F 44.6 °F 76% 30.01 in 4.3 mi NNW 8.1 mph - N/A   Clear
2:25 AM 51.8 °F 44.6 °F 76% 30.01 in 4.3 mi NNW 8.1 mph - N/A   Clear
3:25 AM 50.0 °F 44.6 °F 82% 30.01 in 3.7 mi NW 8.1 mph - N/A   Clear
4:25 AM 50.0 °F 46.4 °F 87% 30.01 in 3.1 mi NW 4.6 mph - N/A   Clear
4:37 AM 50.0 °F 44.6 °F 82% 30.01 in - Variable 3.5 mph - N/A   Clear
5:00 AM 49 °F 45 °F 80% 30.01 in 3 mi 4.5 mph - -   Mist
5:05 AM 50.0 °F 46.4 °F 87% 30.01 in 3.1 mi NW 4.6 mph - N/A   Clear
5:25 AM 50.0 °F 44.6 °F 82% 30.01 in 3.1 mi NW 5.8 mph - N/A   Scattered Clouds
6:14 AM 50.0 °F 46.4 °F 87% 30.01 in 2.8 mi WNW 5.8 mph - N/A   Scattered Clouds
6:25 AM 50.0 °F 46.4 °F 87% 30.01 in 2.8 mi West 4.6 mph - N/A   Scattered Clouds
7:25 AM 48.2 °F 46.4 °F 93% 30.01 in 2.5 mi Variable 3.5 mph - N/A   Scattered Clouds
8:00 AM 50 °F 47 °F 85% 30.03 in 2 mi 2.2 mph - -   Mist
8:10 AM 50.0 °F 46.4 °F 87% 30.01 in 2.2 mi Variable 1.2 mph - N/A   Mostly Cloudy
8:25 AM 50.0 °F 48.2 °F 94% 30.01 in 1.9 mi Variable 2.3 mph - N/A   Mostly Cloudy
8:51 AM 53.6 °F 46.4 °F 77% 30.01 in 2.5 mi Variable 1.2 mph - N/A   Scattered Clouds
9:08 AM 57.2 °F 48.2 °F 72% 30.01 in 3.1 mi Variable 1.2 mph - N/A   Haze
9:25 AM 59.0 °F 50.0 °F 72% 30.01 in 3.1 mi Variable 1.2 mph - N/A   Haze
10:25 AM 62.6 °F 50.0 °F 63% 30.01 in 4.3 mi Variable 2.3 mph - N/A   Mostly Cloudy
10:31 AM 64.4 °F 50.0 °F 59% 30.01 in 5.0 mi Variable 1.2 mph - N/A   Mostly Cloudy
11:00 AM 64 °F 50 °F 50% 30.00 in 5 mi 2.2 mph - -   Scattered Clouds
11:25 AM 66.2 °F 51.8 °F 60% 29.98 in 5.0 mi Variable 2.3 mph - N/A   Mostly Cloudy
12:25 PM 69.8 °F 50.0 °F 49% 29.98 in 6.2 mi NNE 4.6 mph - N/A   Scattered Clouds
1:25 PM 73.4 °F 46.4 °F 38% 29.95 in 6.2 mi NNE 8.1 mph - N/A   Scattered Clouds
2:00 PM 73 °F 45 °F 26% 29.95 in 18 mi NNE 4.5 mph - -   Scattered Clouds
2:25 PM 71.6 °F 44.6 °F 38% 29.95 in 6.2 mi NNE 10.4 mph - N/A   Mostly Cloudy
3:25 PM 73.4 °F 46.4 °F 38% 29.92 in 6.2 mi NE 8.1 mph - N/A   Scattered Clouds
4:06 PM 66.2 °F 57.2 °F 73% 29.92 in 3.7 mi NE 6.9 mph - N/A Rain Rain Showers
4:10 PM 66.2 °F 59.0 °F 78% 29.92 in 2.8 mi ENE 6.9 mph - N/A Rain , Thunderstorm Thunderstorms and Rain
4:25 PM 66.2 °F 57.2 °F 73% 29.92 in 4.3 mi ESE 6.9 mph - N/A Rain , Thunderstorm Light Thunderstorms and Rain
5:00 PM 61 °F 55 °F 76% 29.94 in 6 mi South 6.7 mph - - Rain Light Rain Showers
5:25 PM 60.8 °F 55.4 °F 82% 29.95 in 6.2 mi SSE 5.8 mph - N/A Rain Light Rain Showers
6:07 PM 60.8 °F 57.2 °F 88% 29.92 in 5.6 mi ESE 6.9 mph - N/A Rain Light Rain Showers
6:25 PM 60.8 °F 57.2 °F 88% 29.95 in 4.3 mi East 6.9 mph - N/A Rain Light Rain Showers
6:32 PM 60.8 °F 57.2 °F 88% 29.92 in 3.7 mi East 4.6 mph - N/A Rain Light Rain Showers
7:25 PM 59.0 °F 57.2 °F 94% 29.92 in 3.1 mi East 5.8 mph - N/A Rain Light Rain Showers
7:38 PM 59.0 °F 57.2 °F 94% 29.92 in 3.1 mi Variable 3.5 mph - N/A Rain Light Rain
7:44 PM 59.0 °F 57.2 °F 94% 29.92 in - Variable 2.3 mph - N/A Rain Light Rain
7:56 PM 59.0 °F 57.2 °F 94% 29.92 in - Variable 1.2 mph - N/A Rain Light Rain
8:00 PM 59 °F 57 °F 92% 29.94 in 2 mi 2.2 mph - - Rain Light Rain
8:25 PM 59.0 °F 57.2 °F 94% 29.92 in 1.8 mi Variable 2.3 mph - N/A Rain Light Rain
9:08 PM 59.0 °F 57.2 °F 94% 29.92 in - Calm Calm - N/A Rain Light Rain Showers
9:14 PM 59.0 °F 57.2 °F 94% 29.92 in 2.2 mi Calm Calm - N/A Rain Light Rain Showers
9:25 PM 59.0 °F 57.2 °F 94% 29.92 in 1.7 mi Calm Calm - N/A Rain Light Rain Showers
9:59 PM 59.0 °F 57.2 °F 94% 29.92 in 0.9 mi Variable 2.3 mph - N/A Rain Rain Showers
10:19 PM 59.0 °F 57.2 °F 94% 29.92 in 1.0 mi Variable 2.3 mph - N/A Rain Light Rain Showers
10:25 PM 59.0 °F 57.2 °F 94% 29.92 in 1.0 mi Variable 3.5 mph - N/A Rain Light Rain Showers
10:39 PM 57.2 °F 57.2 °F 100% 29.92 in 1.1 mi Variable 3.5 mph - N/A Rain Light Rain Showers
10:45 PM 57.2 °F 55.4 °F 94% 29.92 in 1.3 mi Variable 3.5 mph - N/A   Drizzle
11:00 PM 57 °F 56 °F 94% 29.93 in 1 mi 4.5 mph - - Rain Light Drizzle
11:25 PM 57.2 °F 55.4 °F 94% 29.92 in 1.4 mi Variable 3.5 mph - N/A Rain Light Rain Showers